Погода в Копакабане

Боливия     16°09′55″S   69°05′07″W
темп.,
°C
ветер,
м/с
пор.,
м/с
влажн.,
%
обл.,
%
осадки,
мм/ч
давл.,
гПа
погр.,
м
18 апреля, вс
вс1823:00+4ссз33880 0.0 102052
02:00+3ссз22933 0.0 101948
05:00+2ссз22923 0.0 101943
08:00+5ссз11832 0.0 1021132
11:00+11с22490 0.0 1018945
14:00+13с44405 0.0 10131228
17:00+12с44350 0.0 1011549
20:00+6сз22470 0.0 101515
19 апреля, пн
пн1923:00+4с22841 0.0 102031
02:00+3ссз22884 0.0 101931
05:00+2сз22900 0.0 101937
08:00+6ссз11770 0.0 1021138
11:00+11ссз32470 0.0 10181000
14:00+13с44390 0.0 10141383
17:00+13с33310 0.0 1011604
20:00+6с33570 0.0 101624
20 апреля, вт
вт2023:00+4ссз33854 0.0 102047
02:00+3ссз33910 0.0 102060
05:00+2ссз22910 0.0 102048
08:00+5ссз11790 0.0 1021150
11:00+10ссз32525 0.0 1018931
14:00+12сз44399 0.0 10151168
17:00+12с43355 0.0 1012697
20:00+6зсз115576 0.0 101614
21 апреля, ср
ср2123:00+5с22695 0.2 101920
02:00+4сз33846 0.2 101947
05:00+3зсз22865 0.0 101831
08:00+6зсз22740 0.0 1019183
11:00+11ссз34470 0.0 1017969
14:00+13ссз55361 0.0 10121182
17:00+12с33342 0.0 1010727
20:00+7с2364100 0.0 101520
22 апреля, чт
чт2223:00+5сз338539 0.4 101953
02:00+4ссз3386100 0.5 101859
05:00+4зсз33846 0.2 101866
08:00+6сз457589 0.3 1018292
11:00+10сз575725 0.7 1016845
14:00+12сз57455 0.7 10121190
17:00+11ссз6952100 0.0 1010853
20:00+6сз4683100 1.0 1015183